Temperature
8 9 9 9 9 9 8 8 7 8 9 9 9 9 9 9 8 8 7 7 6 6 6 6 5 5 5 6 6 6 6 6 6 6 5 5 5 5 5 5 5 5 5 5
7 8 8 8 8 8 8 8 8 8 9 9 9 9 9 8 8 7 7 6 6 6 5 5 5 5 5 5 5 5 5 5 5 5 5 5 5 5 5 5 5 5 5 5
6 8 7 6 8 8 8 8 8 8 8 8 8 8 8 7 7 6 6 5 5 5 5 5 5 5 5 5 5 5 5 5 5 5 4 4 4 4 4 4 4 4 4 4
5 6 5 8 9 9 8 8 8 8 8 8 7 7 7 7 6 6 5 5 5 5 5 4 4 4 4 4 4 4 4 4 4 4 4 4 4 4 4 4 4 4 4 4
5 5 6 8 8 8 7 7 7 7 7 7 7 7 6 6 5 5 5 5 4 4 4 4 4 4 4 4 4 4 4 4 4 4 4 4 4 3 3 3 3 3 3 3
5 5 6 7 6 7 7 6 6 7 6 6 5 4 4 5 4 4 4 4 4 4 4 4 4 4 4 4 4 4 4 4 4 3 3 3 3 3 3 3 3 3 2 2
4 4 6 6 6 6 5 5 5 6 5 5 4 4 4 4 4 4 4 3 3 3 3 3 3 3 3 3 3 3 3 3 3 3 3 3 3 3 2 2 2 2 2 2
4 4 4 5 5 4 4 5 5 4 4 4 4 3 3 3 3 3 3 3 3 3 3 3 3 3 3 3 3 3 3 3 3 2 2 2 2 2 2 2 1 1 1 1
4 4 4 4 4 4 4 4 3 3 3 3 3 2 2 2 2 2 2 2 2 2 2 2 2 2 2 2 2 2 2 2 2 2 1 1 1 1 1 1 1 1 0 0
3 4 4 4 3 3 3 3 3 2 2 2 2 2 1 1 1 1 2 2 2 2 2 2 2 2 2 1 1 1 1 1 1 1 1 1 1 1 1 0 0 0 0 0
3 3 3 3 3 2 2 2 2 2 2 1 1 1 1 1 1 1 1 1 1 1 1 1 1 1 1 1 1 1 1 1 1 0 0 0 0 0 -0 -0 -0 -0 -0 -0
2 2 2 2 2 1 2 1 1 1 1 1 0 0 0 0 0 0 0 0 0 1 1 1 0 1 1 1 0 0 0 0 -0 -0 -0 -0 -1 -1 -1 -1 -1 -1 -1 -1
2 2 2 1 1 1 1 1 1 0 0 -0 -0 -0 -1 -1 -1 -1 -1 -0 -0 -0 -0 -0 -0 -0 -0 -0 -0 -0 -0 -0 -1 -1 -1 -1 -1 -1 -1 -1 -1 -1 -1 -1
0 1 0 0 -0 -0 -0 -0 -0 -1 -1 -1 -1 -1 -1 -2 -1 -1 -1 -1 -1 -1 -1 -1 -1 -1 -1 -1 -1 -1 -1 -1 -1 -1 -2 -2 -2 -2 -2 -2 -2 -2 -2 -2
-1 -1 -1 -1 -1 -1 -1 -1 -1 -2 -2 -2 -2 -2 -2 -2 -2 -2 -2 -2 -2 -2 -2 -2 -2 -2 -2 -2 -2 -2 -2 -2 -2 -2 -2 -2 -2 -2 -2 -3 -2 -2 -2 -2
-2 -2 -2 -2 -2 -2 -2 -2 -2 -2 -3 -3 -3 -3 -3 -3 -3 -3 -3 -3 -3 -3 -3 -3 -3 -2 -2 -2 -2 -2 -2 -2 -2 -2 -3 -3 -3 -3 -3 -3 -3 -3 -3 -3
-3 -3 -3 -3 -3 -3 -3 -3 -3 -3 -3 -3 -3 -3 -3 -3 -3 -3 -3 -3 -3 -3 -3 -3 -3 -3 -3 -3 -3 -3 -3 -3 -3 -3 -3 -3 -3 -3 -4 -4 -4 -4 -4 -4
-3 -4 -4 -4 -4 -4 -4 -4 -4 -4 -4 -4 -4 -4 -4 -4 -4 -4 -4 -4 -4 -4 -4 -4 -4 -3 -3 -3 -3 -3 -4 -4 -4 -4 -4 -4 -4 -4 -4 -4 -4 -4 -4 -4
-4 -4 -4 -4 -4 -4 -4 -4 -4 -4 -4 -4 -4 -4 -4 -4 -5 -5 -5 -4 -4 -4 -4 -4 -4 -4 -4 -4 -4 -4 -4 -4 -4 -4 -4 -4 -5 -5 -5 -5 -5 -5 -5 -5
-4 -4 -5 -5 -5 -5 -5 -5 -5 -5 -5 -5 -5 -5 -5 -5 -5 -5 -5 -5 -5 -5 -5 -5 -5 -5 -5 -5 -5 -5 -5 -5 -5 -5 -5 -5 -5 -5 -5 -5 -5 -6 -6 -6
-5 -5 -5 -5 -5 -5 -5 -5 -5 -5 -5 -5 -6 -6 -6 -6 -6 -6 -6 -6 -5 -6 -6 -5 -5 -5 -5 -5 -5 -5 -5 -6 -6 -6 -6 -6 -6 -6 -6 -6 -6 -6 -6 -6
-6 -6 -6 -6 -6 -6 -6 -6 -6 -6 -6 -6 -6 -6 -6 -6 -6 -6 -6 -6 -6 -6 -6 -6 -6 -6 -6 -6 -6 -6 -6 -6 -6 -6 -6 -6 -7 -7 -7 -7 -7 -7 -7 -7
-6 -6 -6 -6 -7 -7 -7 -7 -7 -7 -7 -7 -7 -7 -7 -7 -7 -7 -7 -7 -7 -7 -7 -7 -7 -7 -7 -7 -7 -7 -7 -7 -7 -7 -7 -7 -7 -7 -7 -7 -7 -7 -7 -7
-7 -7 -7 -7 -7 -7 -7 -7 -7 -7 -8 -8 -8 -8 -8 -8 -8 -8 -8 -8 -8 -8 -8 -8 -8 -8 -8 -8 -7 -7 -7 -7 -7 -7 -8 -8 -8 -8 -8 -8 -8 -8 -8 -8
-8 -8 -8 -8 -8 -8 -8 -8 -8 -8 -8 -8 -8 -8 -8 -9 -9 -9 -9 -8 -8 -8 -8 -8 -8 -8 -8 -8 -8 -8 -8 -8 -8 -8 -8 -8 -8 -8 -8 -8 -8 -8 -8 -8
-8 -8 -9 -9 -9 -9 -9 -9 -9 -9 -9 -9 -9 -9 -9 -9 -9 -9 -9 -9 -9 -9 -9 -9 -9 -9 -9 -8 -8 -8 -8 -8 -8 -8 -8 -8 -8 -8 -8 -8 -8 -8 -8 -8
-9 -9 -9 -9 -9 -10 -10 -10 -10 -10 -10 -10 -10 -10 -10 -10 -10 -10 -10 -10 -9 -9 -9 -9 -9 -9 -9 -9 -9 -9 -9 -9 -9 -9 -9 -8 -8 -9 -9 -9 -9 -9 -9 -9
Wind_Speed
11 10 8 9 9 9 11 11 9 9 8 5 2 3 4 4 4 5 4 4 4 3 3 2 2 1 1 1 0 0 1 2 2 2 2 2 2 2 3 4 5 5 5 5
9 10 10 12 12 12 13 12 13 12 11 4 2 2 3 5 5 5 5 5 5 4 3 3 2 1 1 0 0 1 1 1 1 2 2 3 3 3 3 3 4 4 5 5
7 6 8 10 10 11 9 8 8 10 7 2 2 3 2 3 4 4 5 5 5 4 4 3 2 1 1 1 0 1 1 1 1 2 2 2 3 3 3 3 3 4 4 5
4 4 9 6 2 5 7 8 7 4 1 1 1 1 1 3 4 4 5 5 5 4 4 3 2 2 1 1 1 0 1 1 1 1 2 2 2 2 2 2 3 3 4 5
4 6 9 5 2 2 4 4 2 2 1 2 3 2 2 5 5 4 4 4 4 4 3 3 3 2 2 1 1 0 0 0 0 1 1 2 2 2 2 2 2 2 3 4
5 5 6 1 1 1 1 3 1 1 1 2 2 1 2 4 5 5 5 4 4 4 3 3 3 2 2 1 0 1 1 1 1 0 1 2 2 2 1 2 2 2 2 3
9 7 5 1 1 2 3 2 3 3 3 2 1 1 2 4 5 5 5 5 5 4 4 3 3 2 2 2 2 1 1 1 0 1 1 1 1 1 2 2 2 1 2 2
6 7 6 1 2 2 1 3 4 4 4 3 2 3 4 4 4 4 4 4 4 4 4 4 3 2 2 3 2 1 0 0 0 0 0 1 1 1 1 2 2 2 2 2
4 3 1 3 3 3 4 3 3 3 4 3 3 4 4 4 4 4 4 4 4 4 4 4 4 2 3 3 2 1 1 0 0 0 0 1 1 2 1 1 2 2 2 2
3 1 1 2 3 4 4 3 3 3 3 3 3 4 4 4 4 4 4 4 4 4 4 5 4 4 3 3 3 1 1 1 0 0 0 0 1 1 2 2 2 2 3 3
4 2 1 2 3 3 3 3 4 4 4 4 3 4 4 4 4 4 4 4 4 4 4 5 4 4 4 3 3 2 1 1 0 0 1 1 1 1 2 3 3 4 3 3
4 2 2 2 2 2 2 3 3 3 4 4 3 4 4 4 4 5 5 4 4 4 4 4 4 4 4 3 3 2 1 1 1 1 1 0 1 2 2 3 3 4 4 4
3 3 2 2 2 3 3 3 3 3 3 4 4 4 4 4 4 5 5 5 5 5 5 5 4 5 5 4 3 2 2 2 1 1 1 1 1 1 2 3 2 3 3 4
3 2 2 2 2 3 3 3 3 3 3 3 3 4 4 4 4 5 5 5 5 5 5 4 4 5 5 4 3 3 2 2 1 1 1 1 1 1 2 2 2 3 3 4
5 4 3 3 3 4 3 3 3 3 4 4 4 4 4 5 5 5 6 6 5 5 5 5 5 5 5 4 3 3 2 2 1 1 1 1 1 1 1 2 2 2 3 3
4 3 3 3 3 3 3 3 3 3 4 4 4 5 5 4 5 5 5 5 5 5 5 5 5 6 6 5 4 3 2 3 2 1 1 1 1 1 2 2 2 2 3 3
3 3 3 3 3 3 3 3 3 3 3 4 4 4 5 5 5 5 5 5 4 4 5 5 5 6 5 5 4 2 2 3 3 2 1 1 2 2 2 2 2 3 3 3
3 3 3 3 2 3 3 4 4 4 4 4 4 4 4 4 5 5 6 6 5 5 5 5 5 5 5 5 4 2 2 2 2 2 2 2 2 2 2 2 2 3 3 3
5 5 5 5 4 3 3 4 4 4 4 4 4 4 4 4 5 5 5 6 6 6 6 6 8 6 5 5 5 3 2 2 3 2 2 3 3 2 2 2 3 3 3 3
5 5 5 5 5 4 4 4 4 4 4 4 4 4 5 5 5 5 5 5 4 4 5 6 6 5 5 5 6 3 3 3 3 3 3 3 3 3 3 3 3 4 4 4
4 4 4 4 4 4 4 4 4 4 5 4 4 5 5 6 5 5 5 5 5 5 6 8 5 4 5 6 6 3 3 3 3 3 3 3 3 4 4 4 4 4 4 4
4 4 4 4 4 5 5 4 4 5 5 5 5 5 5 6 6 5 4 4 5 8 6 5 4 7 8 8 4 4 4 4 4 3 3 3 4 4 4 4 4 4 4 4
4 4 4 4 4 5 5 5 5 4 5 5 6 6 5 5 5 5 6 5 5 9 7 5 8 11 12 6 4 4 4 4 4 4 4 4 4 4 4 5 5 5 5 5
4 4 4 4 4 4 5 5 5 4 5 5 5 5 5 5 5 4 4 9 10 11 6 8 12 12 11 5 4 4 4 4 4 4 4 4 4 4 5 5 5 5 5 5
4 4 4 4 4 4 5 6 6 5 5 5 5 5 4 4 5 6 6 7 10 11 7 9 12 12 7 4 5 5 4 5 5 4 4 4 4 5 5 5 5 5 5 5
4 4 4 4 4 4 4 5 5 5 6 6 6 5 5 5 5 6 5 7 8 10 7 6 6 7 5 5 5 5 5 5 6 5 5 5 5 5 5 5 6 5 5 5
4 4 4 4 4 4 4 4 5 6 6 6 7 7 6 6 6 6 7 7 6 6 6 6 5 5 5 5 5 5 5 5 5 5 5 5 5 5 5 5 5 5 5 5
Wind_Direction
266 277 274 260 253 236 230 231 240 259 269 277 305 343 352 4 11 13 13 16 9 3 1 19 38 33 18 11 45 153 167 177 189 179 173 172 174 177 172 175 181 180 177 177
269 263 264 265 253 242 240 240 246 262 273 298 327 350 8 17 15 7 2 357 352 351 353 355 356 352 341 276 245 192 187 196 185 172 174 174 177 175 174 180 178 174 178 179
265 268 285 262 239 228 227 228 230 244 252 292 326 345 356 5 3 356 356 348 343 338 334 330 326 334 302 231 178 167 190 186 188 178 176 173 170 174 182 185 181 183 187 185
265 271 246 243 190 207 217 233 227 235 270 325 324 329 31 48 30 5 354 345 339 335 334 334 340 4 8 62 90 154 178 172 187 184 182 174 171 187 194 189 187 193 195 192
231 247 264 241 204 177 205 241 209 210 269 4 -0 355 55 49 31 7 356 349 338 332 333 344 352 1 14 38 67 45 350 304 311 174 177 185 197 200 200 185 192 200 193 187
227 237 247 260 108 16 130 232 47 102 102 57 41 335 307 5 6 359 360 359 353 347 353 359 352 1 7 347 357 293 277 270 262 209 204 206 203 200 203 185 194 193 201 195
230 240 258 20 92 99 174 245 30 45 53 54 35 299 317 348 356 358 357 355 357 359 355 348 349 3 352 331 306 300 313 308 259 216 213 196 183 184 178 174 173 194 218 224
214 229 245 71 109 140 135 52 44 37 34 37 9 350 351 354 351 350 353 354 358 356 349 348 356 3 338 316 311 323 358 341 319 294 195 157 165 178 176 173 177 203 232 247
208 224 41 61 76 60 53 46 26 15 9 15 354 341 341 341 340 341 346 346 348 347 343 345 349 349 322 315 334 349 18 325 318 70 75 155 170 181 186 189 193 211 219 238
283 260 59 62 61 46 44 33 14 4 357 356 337 328 331 335 334 335 339 339 340 342 340 335 338 342 336 334 337 337 322 309 346 140 212 185 185 194 196 206 208 216 225 234
270 284 338 24 28 19 25 23 10 0 349 337 325 321 324 327 330 332 334 333 334 332 326 326 335 340 343 344 343 334 315 290 276 247 237 242 244 239 230 232 222 222 227 226
264 278 282 296 337 343 347 355 349 343 336 340 338 328 332 330 330 329 330 331 333 331 326 327 339 339 341 348 346 333 309 289 276 259 250 249 282 314 301 262 262 256 248 245
300 325 329 338 354 349 339 345 348 345 336 334 342 343 334 328 331 332 338 342 338 333 333 337 342 339 340 345 347 338 303 290 287 270 242 238 242 251 306 327 315 293 277 276
343 333 321 350 353 6 5 9 13 10 8 2 353 346 340 338 340 343 344 343 340 340 343 347 350 345 343 350 349 337 324 309 297 274 256 251 251 252 253 265 298 312 300 279
5 3 359 15 22 22 13 18 21 14 10 7 0 352 350 350 346 344 342 341 342 346 350 354 353 344 346 351 346 335 325 317 315 308 285 256 256 263 265 264 270 287 308 306
350 5 20 29 20 15 12 13 10 1 2 357 351 349 347 343 340 340 340 344 351 351 349 349 345 340 346 346 342 335 327 324 332 329 316 298 270 259 260 261 265 270 277 285
29 18 11 13 13 10 8 5 2 358 353 345 343 345 346 346 344 343 343 348 351 345 341 339 334 337 343 341 335 328 328 332 336 340 318 298 284 271 263 260 263 270 275 277
37 29 19 13 5 1 358 0 1 355 343 339 345 351 352 350 342 337 338 342 344 343 341 336 337 342 344 342 341 339 339 333 328 320 316 311 305 295 284 278 278 280 288 289
34 33 29 24 18 15 5 358 355 348 343 350 355 350 342 336 332 331 337 341 340 336 336 342 344 349 342 339 339 334 329 326 325 322 317 309 310 305 297 291 289 286 285 286
30 29 27 19 14 10 1 355 356 354 350 354 352 346 342 339 339 337 339 333 325 316 320 332 338 338 332 331 335 330 326 321 315 311 310 305 300 299 299 295 291 290 290 288
14 13 12 8 3 358 352 348 349 345 343 349 343 332 327 326 330 329 327 323 324 331 334 336 339 331 329 330 332 331 323 316 310 306 304 301 301 302 301 299 298 297 294 294
2 3 359 357 356 348 344 345 343 338 337 336 332 328 327 326 327 325 315 309 319 331 336 329 326 324 327 327 324 320 315 311 308 306 302 300 298 297 297 298 296 296 294 291
357 356 354 351 343 333 334 338 335 330 328 327 325 324 320 315 316 315 316 322 325 328 329 318 321 324 325 325 318 312 309 305 302 300 298 296 295 294 294 295 295 293 291 290
351 350 345 339 337 337 333 329 328 324 315 311 311 312 313 315 314 310 305 317 323 320 317 315 321 322 325 322 312 306 301 299 297 295 296 297 296 294 292 292 293 292 289 288
342 337 335 336 337 331 326 327 327 325 324 323 321 321 318 309 304 309 308 309 314 317 313 315 318 320 321 309 305 301 298 295 296 298 293 294 292 291 290 288 289 290 289 286
336 332 327 325 324 324 325 326 324 324 323 321 319 319 316 311 307 306 306 306 306 312 311 304 306 310 307 302 301 299 299 303 305 302 295 291 287 287 286 287 287 286 285 283
334 333 331 333 337 334 328 322 319 318 318 315 313 314 314 313 310 310 309 309 308 307 305 303 301 300 299 299 298 298 296 295 293 291 289 287 286 284 282 282 281 280 279 278
Height
1482 1478 1478 1478 1478 1478 1480 1480 1481 1473 1470 1467 1467 1467 1466 1466 1465 1464 1463 1462 1461 1460 1460 1459 1458 1458 1458 1457 1457 1457 1458 1458 1459 1460 1460 1461 1462 1463 1465 1466 1467 1469 1471 1472
1482 1477 1475 1474 1471 1471 1472 1471 1470 1469 1468 1465 1465 1465 1465 1465 1464 1464 1463 1462 1461 1460 1459 1457 1457 1456 1456 1455 1455 1455 1456 1456 1457 1457 1458 1458 1459 1460 1462 1463 1464 1466 1467 1468
1482 1475 1474 1473 1463 1463 1464 1463 1465 1466 1465 1464 1464 1464 1464 1464 1464 1463 1462 1461 1460 1458 1457 1456 1455 1454 1454 1453 1453 1453 1453 1454 1454 1455 1455 1456 1457 1458 1459 1460 1461 1462 1463 1464
1482 1479 1481 1461 1455 1454 1457 1458 1459 1460 1461 1462 1463 1463 1463 1463 1463 1462 1461 1460 1458 1457 1455 1454 1453 1453 1452 1451 1451 1451 1451 1451 1452 1452 1453 1454 1454 1455 1456 1457 1457 1458 1459 1460
1481 1477 1465 1457 1455 1455 1457 1457 1457 1458 1459 1460 1461 1461 1462 1462 1462 1461 1460 1458 1457 1455 1454 1453 1452 1451 1450 1449 1449 1449 1448 1449 1449 1450 1450 1451 1451 1452 1452 1453 1454 1454 1455 1456
1476 1474 1466 1457 1455 1453 1456 1460 1457 1456 1458 1459 1460 1463 1463 1461 1460 1459 1457 1456 1454 1453 1452 1451 1450 1449 1448 1447 1447 1446 1446 1446 1447 1447 1447 1447 1448 1449 1449 1450 1450 1451 1451 1452
1473 1470 1460 1457 1455 1454 1462 1462 1458 1457 1458 1459 1460 1462 1462 1459 1458 1457 1456 1454 1453 1451 1450 1449 1448 1447 1446 1445 1445 1445 1444 1444 1444 1444 1444 1444 1445 1445 1446 1446 1446 1447 1448 1448
1468 1467 1464 1458 1456 1459 1460 1459 1458 1458 1458 1459 1459 1459 1458 1458 1456 1455 1454 1452 1451 1450 1448 1448 1447 1445 1444 1444 1443 1443 1442 1442 1442 1442 1442 1442 1442 1442 1442 1442 1443 1443 1444 1444
1460 1461 1458 1457 1457 1458 1458 1458 1458 1458 1458 1458 1458 1457 1457 1456 1455 1453 1452 1451 1450 1448 1447 1446 1445 1444 1442 1441 1441 1440 1439 1439 1439 1439 1439 1439 1439 1438 1438 1439 1439 1439 1440 1440
1459 1457 1457 1457 1457 1458 1458 1458 1458 1458 1458 1457 1456 1456 1455 1454 1453 1452 1450 1449 1448 1446 1445 1444 1443 1442 1440 1439 1438 1438 1437 1436 1436 1436 1436 1436 1436 1435 1435 1435 1436 1436 1436 1436
1457 1457 1457 1457 1457 1458 1457 1457 1457 1457 1456 1456 1455 1454 1453 1452 1451 1449 1448 1447 1445 1444 1443 1441 1440 1439 1438 1437 1436 1435 1434 1434 1433 1433 1433 1432 1432 1433 1432 1433 1433 1433 1433 1433
1457 1457 1457 1457 1457 1457 1456 1455 1455 1454 1454 1453 1453 1452 1451 1449 1448 1447 1446 1444 1443 1442 1440 1439 1438 1437 1436 1435 1434 1432 1431 1431 1430 1430 1430 1429 1429 1429 1429 1430 1430 1430 1429 1430
1455 1454 1454 1454 1455 1455 1454 1453 1453 1452 1452 1451 1450 1450 1449 1447 1446 1445 1443 1442 1441 1439 1438 1437 1435 1434 1433 1432 1431 1430 1429 1428 1428 1427 1427 1426 1426 1426 1425 1426 1426 1426 1426 1426
1453 1452 1452 1452 1453 1452 1452 1451 1451 1450 1450 1450 1449 1448 1447 1445 1444 1443 1441 1440 1438 1437 1436 1434 1433 1432 1431 1430 1428 1427 1426 1425 1425 1424 1424 1423 1423 1423 1422 1422 1422 1421 1422 1421
1451 1451 1451 1451 1451 1450 1450 1450 1449 1449 1448 1447 1447 1446 1445 1443 1442 1440 1439 1438 1436 1435 1434 1432 1431 1430 1429 1427 1426 1425 1424 1423 1422 1421 1421 1421 1420 1420 1419 1419 1418 1418 1417 1417
1450 1449 1449 1449 1449 1449 1448 1448 1448 1447 1446 1446 1445 1444 1443 1441 1440 1439 1438 1436 1434 1433 1432 1430 1429 1428 1427 1425 1424 1423 1422 1421 1420 1419 1418 1417 1417 1416 1416 1416 1415 1415 1414 1414
1449 1449 1448 1448 1448 1447 1447 1447 1446 1446 1445 1444 1443 1442 1441 1440 1438 1437 1436 1435 1433 1431 1430 1429 1428 1426 1425 1423 1422 1421 1419 1418 1418 1417 1416 1415 1414 1414 1413 1413 1412 1411 1411 1410
1450 1449 1449 1448 1447 1446 1446 1445 1445 1444 1443 1443 1442 1440 1439 1438 1437 1435 1434 1433 1431 1430 1429 1428 1426 1424 1423 1421 1420 1419 1417 1416 1415 1415 1413 1412 1411 1411 1410 1409 1409 1408 1407 1407
1450 1449 1449 1448 1447 1446 1445 1444 1444 1443 1442 1441 1440 1439 1438 1437 1435 1434 1433 1431 1429 1428 1427 1426 1424 1422 1421 1419 1418 1416 1415 1414 1413 1412 1411 1410 1409 1408 1407 1406 1405 1404 1404 1403
1450 1449 1449 1448 1447 1446 1445 1444 1443 1442 1441 1440 1438 1437 1436 1435 1434 1432 1430 1429 1428 1426 1425 1423 1421 1420 1418 1417 1415 1414 1412 1411 1410 1409 1408 1407 1406 1405 1404 1403 1402 1401 1400 1399
1450 1449 1448 1447 1446 1445 1444 1443 1442 1441 1439 1438 1437 1436 1434 1433 1432 1430 1428 1426 1425 1424 1422 1420 1419 1417 1415 1414 1412 1411 1409 1408 1407 1406 1405 1404 1403 1401 1400 1399 1398 1397 1396 1395
1450 1449 1448 1447 1445 1444 1443 1442 1441 1439 1438 1437 1435 1434 1432 1430 1429 1427 1426 1425 1423 1421 1419 1417 1415 1414 1412 1411 1409 1407 1406 1405 1404 1402 1401 1400 1399 1398 1397 1396 1395 1393 1392 1391
1449 1447 1446 1445 1444 1443 1442 1440 1439 1438 1436 1434 1433 1431 1430 1428 1426 1425 1422 1421 1419 1417 1416 1414 1412 1410 1409 1407 1405 1404 1403 1401 1400 1399 1398 1397 1395 1394 1393 1392 1391 1390 1388 1387
1447 1446 1445 1443 1442 1441 1439 1438 1437 1435 1434 1432 1430 1429 1427 1425 1423 1421 1419 1417 1416 1414 1412 1410 1408 1406 1405 1403 1402 1400 1399 1398 1396 1395 1394 1393 1392 1390 1389 1388 1387 1385 1384 1383
1445 1444 1443 1441 1440 1439 1437 1436 1434 1432 1430 1429 1427 1425 1424 1422 1420 1417 1415 1413 1411 1410 1407 1406 1404 1402 1401 1399 1398 1397 1395 1394 1393 1392 1390 1389 1388 1386 1385 1384 1383 1381 1380 1378
1444 1442 1441 1440 1438 1437 1435 1433 1431 1429 1427 1425 1423 1422 1420 1418 1416 1413 1411 1409 1407 1406 1404 1402 1400 1399 1397 1396 1394 1393 1392 1390 1389 1388 1386 1385 1384 1382 1381 1379 1378 1377 1375 1374
1442 1440 1438 1437 1435 1434 1432 1430 1428 1426 1424 1422 1420 1418 1416 1414 1411 1409 1407 1405 1403 1401 1400 1398 1396 1395 1393 1392 1391 1389 1388 1386 1385 1383 1382 1381 1379 1378 1376 1375 1374 1372 1371 1370